PEGASUS DEB, 24082

Orbit data source: Space-Track

PEGASUS DEB, 24082 is space debris in LEO originally from a launch on Thu, 19 May 1994 UTC launched from the Air Force Western Test Range (AFWTR). Debris objects in space refer to the collection of defunct objects orbiting the Earth. Examples of debris include non-operational satellites, rocket bodies, and fragments generated from explosions, collisions, or faulty payload assembly.

Loading next visibility...
Identifier
24082, 1994-029ED
Orbit
LEO
Country
Flag of USUS
Related business
Manufacturer
Unknown
Mission
Spacecraft
Bus & Motor
Unknown
Mass
Unknown
Launch date (UTC)
1994-05-19 (32 years ago)
Launch vehicle
Unknown
Launch site
Air Force Western Test Range (AFWTR)
Object type
Payload
Rocket body
Debris
Shape & HBR
Unknown shape, 0.1 m
Radar Cross Section
Medium (>0.1 m² and <1 m²)

Expand to show TLE details & history
Last TLE update: 19 hours ago

TLE from 19 hours ago
0 PEGASUS DEB
1 24082U 94029ED  26263.38275237  .00006437  00000-0  29822-3 0  9992
2 24082  81.9086 235.3290 0038413 236.2430 123.5141 15.19249552634792
Epoch: 2026-09-20T09:11Z
TLE epoch observation values (Epoch: 2026-09-20T09:11:09.804Z)
Latitude
-0.00007°
Longitude
98.26041°
Altitude
525.855 km
Speed
7.592 km/s
True Right ascension
15h 41m 18s
True Declination
0° 00' 00"
Sunlit
Object was in daylight at epoch
Visualization orbit readout
Latitude
Unknown
Longitude
Unknown
Altitude
Unknown
Speed
Unknown
Apparent Right ascension
Unknown
Apparent Declination
Unknown
Sunlit
N/A
Visualization observer readout
Local Sidereal Time
21:06:42
Azimuth
Unknown
Elevation
Unknown
Doppler factor
Unknown
Orbital elements
Apogee altitude
531.545 km
Perigee altitude
478.664 km
Semi-major axis
6,883.242 km
Eccentricity
0.00384
Inclination
81.9086°
RAAN
235.329°
Arg. of periapsis
236.243°
True anomaly
123.88013°
Mean anomaly
123.5141°
Eccentric anomaly
123.69721°
Mean motion
3.80061 °/min
Orbital period
94.72 mins
BSTAR
0.00029822
Loading maneuver chart data...
Computing Atmospheric mass density...

Documentation

Showing up to 5 results
|